Location: Roland
(31.1349°N, 85.4372°W)
Time: 22:51:58
(UTC+00:00)

Tiros 1 - Pass Details

Date: 20 April 2021
Orbit: 630 x 664 km, 48.4° (Epoch: 06 May)

Event Time Altitude Azimuth Distance (km) Brightness Sun altitude
Rises 12:50:41 0° 203° (SSW) 2,943 10.3 20.9°
Reaches altitude 10° 12:53:14 10° 193° (SSW) 2,030 9.6 21.5°
Maximum altitude 12:57:19 30° 132° (SE) 1,138 9.4 22.3°
Drops below altitude 10° 13:01:23 10° 71° (ENE) 2,020 11.2 23.2°
Sets 13:03:54 0° 61° (ENE) 2,926 11.5 23.8°
